Location: Boiro
(42.6475°N, 8.8834°W)
Time: 12:14:40
(UTC+01:00)

Transit 4A - Pass Details

Date: 03 December 2021
Orbit: 863 x 981 km, 66.8° (Epoch: 26 January)

Event Time Altitude Azimuth Distance (km) Brightness Sun altitude
Rises 20:53:47 0° 208° (SSW) 3,441 11.3 -30.8°
Reaches altitude 10° 20:56:13 10° 208° (SSW) 2,516 10.5 -31.2°
Enters shadow 21:00:05 44° 207° (SSW) 1,195 8.5 -31.9°
